Timeline UpdatesTrip UpdatesNews PostsPvt Posts♥♥Travel TipsAdmin PostsConv PostsFollowed PostsChat RequestsBlog PostsPNR Posts

Disclaimer
Search
 
 
Thu Oct 30, 2014 19:56:12 ISTHomeTrainsΣChainsAtlasPNRForumGalleryNewsFAQTripsMembersLoginFeedback
No Recent News for this Train
Other Trains in the News **new
Latest...
.
Tue Oct 29, 2013 (01:06PM)
⇐ Return Journey: Train# 18646

18645/East Coast Express

Time-Table HAS CHANGED.
Sep 03 2014 (8:30PM)
Change Departure Station:
Change Arrival Station:
Post a Train Travel TipPost a Train Travel Tip **new
Post a Comment/Question/Picture/VideoPost a Comment/Question/Picture/Video
Inaugural Run
Fri May 16, 1975
Pantry/Catering
✕ NO Pantry Car
✓ Catering Avbl
Loco/Rake Reversals
BZA/Vijayawada Junction (10); VSKP/Visakhapatnam Junction (8);
RSA - Rake Sharing
18616/18615 Hatia-Howrah Express-18645/18646 Howrah-Hyderabad East Coast Express.; http://goo.gl/eoVrw
Rake/Coach Composition
HCPV-HCPV-SLR-GS-A1-B1-B2-B3-B4-S11-S10-S9-S8-S7-S6-S5-S4-S3-S2-S1-GS-SLR-ENG.; As seen at SRC by Sabyasachi on 12-12-2012.
Loco
HWH - VSKP: SRC WAP-4 VSKP - BZA: LGD WAP-4 BZA -...
Read more...
VSKP: LGD WAP-4
News    PNR    Forum    Time-Table    Availability    Fare Chart    Map    Arr/Dep History    Trips    Gallery    ΣChains    X/O    Timeline    
Travel Time: 30h 15m    56 halts    Distance: 1580 km    Avg Speed: 52 km/hr
Type: Mail/Express
Zone: SER/South Eastern
Departs @ 11:45 (Avg 2m late)
Platform# 22
SMTWTFS
Kolkata Howrah Junction/HWH 
Arrives @ 18:00 +1 night (Avg 38m late)
Platform# 5
SMTWTFS
Secunderabad Junction/SC 

56 halts. 266 intermediate Stations between Kolkata Howrah Junction and Secunderabad Junction

Show ALL intermediate Stations  Show Old Time-Table

#TrkCodeStation NameX/OArrivesAvgDepartsAvgHaltPFDay#KmSpeedElevZoneAddress
1/==/HWHKolkata Howrah Junction (23)»  -11:45+22210.06610mERHowrah 711101, West Bengal
2/==/MCAMecheda (6)X  12:40 12:38+1112:42 12:40+172m--158.23710mSERdist - purba Medinipur, West Bengal
3/==/PKUPanskura Junction (6)X  13:03 13:00+1013:04 13:02+111 2m--170.6599mSERPanskura, West Bengal
4/==/KGPKharagpur Junction (10)X  13:47+713:52+95m11115.07342mSERKharagpur, West Bengal
5/==/BLDABelda (4)  14:22 14:21+1314:23+131 2m--1150.57924mSERDistrict Paschim Medinipur, West Bengal
6/==/JERJaleswar (4)  14:49 14:48+1114:50+111 2m--1183.66513mSERJaleswar, Odisha
7/==/BTSBasta (3)X  15:09 15:08+1115:10+151 2m--1203.14716mSERBasta, Odisha
8/==/ROPRupsa Junction (5)XO  15:24 15:23+1215:25+121 2m--1213.35313mSERRupsa, Odisha
9/==/BLSBalasore (4)  15:45+915:50+95m--1231.18719mSERBalasore, Odisha
10/==/SOROSoroX  16:14 16:13+1016:15+101 2m--1264.66814mSERSoro, Odisha
11/==/MKOMarkonaX  16:29 16:28+916:30+81 2m--1279.32018mSERMarkuna, Odisha
12/==/BHCBhadrak (4)O  17:13-117:15+22m--1293.68323mECoRBhadrak, Odisha
13/==/BTVBaitarani Road  17:36 17:38+917:37 17:39+101m--1325.46927mECoRBaitarani, Odisha
14/==/KRIHKorai Halt  17:44 17:45+1117:45 17:46+111m--1332.34930mECoRJajapur, Odisha
15/==/JJKRJajpur Keonjhar Road (4)  17:51 17:52+1117:52 17:54+121 2m--1337.28836mECoRJajpur, Odisha
16/==/DNMDhanmandal (3)X  18:20 18:19+1718:21 18:20+181m--1373.75838mECoRDhanmanda, Odisha
17/==%CTCCuttack Junction (5)X  18:55 18:57+1719:00 19:02+195m31409.24628mECoRCuttack, Odisha
18%==/BRAGBarang  19:17 19:18+2019:18 19:19+211m--1421.43027mECoRDist - Cuttack, Odisha
19/==/BBSBhubaneswar (4)X  19:45 19:50+1419:50 19:55+155m41437.13840mECoRBhubaneshwar, Odisha
20/==/KURKhurda Road Junction (7)X  20:20 20:25+1320:35 20:40+1215m81456.07625mECoRKhordha, Odisha
21/==/NKPNirakarpur  20:57 21:01+1720:58 21:03+171 2m--1482.57821mECoRNirakarpur, Odisha
22/==/KAPGKalupara Ghat  21:12 21:16+1721:13 21:18+171 2m31499.48310mECoRChandeswar, Odisha
23/==/BALUBalugaon (3)  21:35 21:38+1921:36 21:40+191 2m21527.16211mECoR752030, Odisha
24/==/CLKAChilkaX  21:44 21:47+1921:45 21:49+191 2m--1534.36725mECoRBarkul, Odisha
25/==/KITKhallikot (3)  21:54 21:58+1921:55 22:00+191 2m--1544.37513mECoRKhallikot, Odisha
26/==/CAPChatrapur  22:23 22:30+1922:24 22:32+191 2m--1581.77236mECoRChatrapur, Odisha
27/==/BAMBrahmapur (3)O  22:40 22:50+1822:50 23:00+1410m21603.27027mECoRBerhampur, Odisha
28/==/IPMIchchapuramX  23:13 23:21+1023:14 23:23+91 2m--1627.68321mECoRIchchapuram, Andhra Pradesh
29/==/SPTSompeta (4)XO  23:28 23:36+623:29 23:38+61 2m--1645.63548mECoRKanchili, Andhra Pradesh
30/==/PSAPalasa (3)  00:18 00:33+200:20 00:35+42m--2677.57731mECoRKasibugga, Andhra Pradesh
31/==/NWPNaupada Junction  00:43 00:55+1100:44 00:57+111 2m--2703.28613mECoRNuapada . ph.no. 08945-249728, Andhra Pradesh
32/==/CHESrikakulam Road (4)  01:20 01:30+1301:22 01:32+142m--2750.58334mECoRsrikakulam road ph .no. 08942-287222, Andhra Pradesh
33/==/CPPChipurupalleX  01:53 02:00+1601:54 02:02+161 2m--2789.15699mECoRCheepurupalli, Andhra Pradesh
34/==/VZMVizianagaram Junction (5)  02:30 02:35+1502:35 02:40+175m--2820.07563mECoRVizianagaram, Andhra Pradesh
35/==/KTVKottavalasa Junction (5)X  03:03 03:08+2103:04 03:10+211 2m--2855.07758mECoRVizianagaram District, Andhra Pradesh
36/==/SCMSimhachalam (2)  03:21 03:24-03:22 03:26-1 2m--2873.01727mECoRVisakhapatnam, Andhra Pradesh
37/==/VSKPVisakhapatnam Junction (8)XO03:45 03:55+1104:05 04:15+1720m32881.23311mECoRVishakhapatnam 530001, Andhra Pradesh
38/==/DVDDuvvada (4)X  04:33 04:45+1804:35 04:47+192m12897.54446mECoRVishakhapatnam District, Andhra Pradesh
39/==/AKPAnakapalle (3)X  04:53 05:09+1604:54 05:10+201m22913.55930mSCRAnakapalle ph.no . 08924-221698, Andhra Pradesh
40/==/YLMElamanchili (2)X  05:14 05:34+2505:15 05:35+291m12937.27123mSCRVisakhapatnam District, Andhra Pradesh
41/==/TUNITuni (2)X  05:43 06:09+3505:44 06:10+361m12977.36224mSCRTuni ph.no. 08854-252172, Andhra Pradesh
42/==/ANVAnnavaram (3)XO  05:58 06:26+3505:59 06:27+381m12993.94627mSCREast Godavari District, Andhra Pradesh
43/==/PAPPithapuram (2)XO  06:19 06:59+3106:20 07:00+351m121018.78022mSCREast Godavari District, Andhra Pradesh
44/==/SLOSamalkot Junction (3)XO  06:34 07:09+3906:35 07:10+401m321030.86318mSCRSamalkot, Andhra Pradesh
45/==/DWPDwarapudi (3)X07:04 07:39+3907:05 07:40+401m--21061.14020mSCREast Godavari District, Andhra Pradesh
46/==/RJYRajahmundry (3)  07:42 08:10+3107:44 08:12+342m121081.05523mSCRRajahmundry ph.no. 0883-2420541, Andhra Pradesh
47/==/NDDNidadavolu Junction (3)XO  08:08 08:36+4508:09 08:37+461m221103.17520mSCRNidadavolu jtn ph.no. 08813-210325, Andhra Pradesh
48/==/TDDTadepalligudem (3)  08:26 08:53+4208:27 08:54+431m321123.19218mSCRTadepalligudem, Andhra Pradesh
49/==/EEEluru (3)  09:00 09:25+5709:01 09:26+581m321170.93319mSCREluru Ph.no. 08812 226401., Andhra Pradesh
50/==/BZAVijayawada Junction (10)X11:00 11:15+2011:20 11:35+3020m121230.29324mSCRVijayawada 520001, Andhra Pradesh
51/==/KMTKhammam (2)X  12:30 12:40+1:0212:32 12:42+1:022m221330.666118mSCRKhammam 507001, Telangana
52/==/MABDMahbubabad (2)  13:15 13:25+1:0813:16 13:26+1:091m221378.158200mSCRWarangal Dist., Telangana
53/==/WLWarangal (3)  14:08 14:28+1:0214:10 14:30+1:062m221438.247271mSCRWarangal., Telangana
54/==/KZJKazipet Junction (3)X  14:40 14:43+1:0714:42 14:45+1:082m321448.464292mSCRWarangal Dist., Telangana
55/==/ZNJangaon (2)  15:31 15:30+1:2315:32+1:221 2m121496.339380mSCRWarangal Dist., Telangana
56/==/ALERAler (2)  15:55+1:1415:56+1:151m221511.345366mSCRNalgonda Dist., Telangana
57/==/BGBhongir (3)X  16:26+1:0616:27+1:071m121533.630455mSCRNalgonda Dist., Telangana
58/==/SCSecunderabad Junction (10)•X  18:00+3818:05+375m521580.022539mSCRSecunderabad 500003, Telangana
59/==/HYBHyderabad Deccan Nampally (6)  18:30+30-521589.2-510mSCRHyderabad, Telangana
Scroll to Top
Scroll to Bottom